Starlink 5681

operational
NORAD ID: 55469 Int'l Des: 2023-015 Owner: SPXS Country: US Constellation: starlink
LEOCIRCULAR

Über Starlink 5681

Beschreibung wird geladen...

Live-Position

3D-Globus wird geladen...

Nächste Überflüge

Höhenverlauf

Altitude vs Time

uPlot chart will show altitude changes over time

Zweizeiliger Elementsatz

1 55469U 23015W 25302.31742403 -.00000066 00000-0 10154-4 0 9994
2 55469 43.0037 319.7051 0000563 253.5778 106.5002 15.02537204150992
Epoch: 29. Okt. 2025 • Age: 43 hours

Aktueller Status

Höhe 558.6 km
Geschwindigkeit 7.58 km/s
Subsatellitenpunkt 2.40°N, 127.83°W
Startdatum 2. Feb. 2023
Alter 2.7 years
Typ internet

Technische Details

Klassifizierung Payload
Masse 305.00 kg
Trockenmasse 290.00 kg
Gesamtmasse 305.00 kg
Länge 0.20 m
Durchmesser 2.80 m
Spannweite 9.00 m
Form Box + pan
Hersteller SPXS
Bus-Typ Starlink
Phasenstatus In Orbit
Besitzer/Staat SPXS/US

Große Konstellationen

Loading constellations...